SL-14 R/B, 21305

Orbit data source: Space-Track

SL-14 R/B, 21305 is space debris in LEO originally from a launch on Thu, 16 May 1991 UTC launched from the Plesetsk Missile And Space Complex (PKMTR). Debris objects in space refer to the collection of defunct objects orbiting the Earth. Examples of debris include non-operational satellites, rocket bodies, and fragments generated from explosions, collisions, or faulty payload assembly.

Loading next visibility...
Identifier
21305, 1991-033G
Orbit
LEO
Country
Flag of CISCIS
Related business
Manufacturer
Yuzhnoe
Mission
Spacecraft
Bus & Motor
S5M, Unknown motor
Mass
1,600 kg wet, 1,600 kg dry
Launch date (UTC)
1991-05-16 (35 years ago)
Launch vehicle
Unknown
Launch site
Plesetsk Missile And Space Complex (PKMTR)
Object type
Payload
Rocket body
Debris
Shape & HBR
Cyl, 1.4 m
Radar Cross Section
7.351 m², Large (>1 m²)

Expand to show TLE details & history
Last TLE update: 2 days ago

TLE from 2 days ago
0 SL-14 R/B
1 21305U 91033G   26171.44632402  .00000021  00000-0  63617-4 0  9999
2 21305  82.5656  66.1780 0038479  20.6513 152.0572 12.54826479607408
Epoch: 2026-06-20T10:42Z
TLE epoch observation values (Epoch: 2026-06-20T10:42:42.395Z)
Latitude
6.95775°
Longitude
175.93257°
Altitude
1,473.081 km
Speed
7.115 km/s
True Right ascension
16h 21m 04s
True Declination
6° 55' 13"
Sunlit
Object was in full shadow at epoch
Visualization orbit readout
Latitude
Unknown
Longitude
Unknown
Altitude
Unknown
Speed
Unknown
Apparent Right ascension
Unknown
Apparent Declination
Unknown
Sunlit
N/A
Visualization observer readout
Local Sidereal Time
00:51:07
Azimuth
Unknown
Elevation
Unknown
Doppler factor
Unknown
Orbital elements
Apogee altitude
1,471.793 km
Perigee altitude
1,411.614 km
Semi-major axis
7,819.841 km
Eccentricity
0.00385
Inclination
82.5656°
RAAN
66.178°
Arg. of periapsis
20.6513°
True anomaly
152.26294°
Mean anomaly
152.0572°
Eccentric anomaly
152.16016°
Mean motion
3.13867 °/min
Orbital period
114.7 mins
BSTAR
0.000063617
Loading maneuver chart data...
Computing Atmospheric mass density...
Loading historical data...
Loading historical data...
Loading historical data...
Loading historical data...
Loading historical data...
Loading historical data...
Loading historical data...

Documentation

Showing up to 5 results
|